Laramie, WY

3:05 AM MDT on September 25, 2017 (GMT -0600)
Laramie Regional

Weather History for KLAR - January, 2013

Change the Weather History Date:

Monday, January 28, 2013

  Actual Average Record
Temperature  
Mean Temperature 23 °F 22 °F  
Max Temperature 33 °F 33 °F 51 °F (1986)
Min Temperature 12 °F 10 °F -28 °F (1948)
Degree Days  
Heating Degree Days 42 43  
Month to date heating degree days 1312 1205  
Since 1 July heating degree days 4522 4878  
Cooling Degree Days 0 0  
Month to date cooling degree days 0 0  
Year to date cooling degree days 0 0  
Moisture  
Dew Point 18 °F    
Average Humidity 77    
Maximum Humidity 92    
Minimum Humidity 61    
Precipitation  
Precipitation T in 0.01 in 0.23 in (1951)
Month to date precipitation T 0.24  
Year to date precipitation T 0.24  
Sea Level Pressure  
Sea Level Pressure 29.65 in    
Wind  
Wind Speed 12 mph (NNW)    
Max Wind Speed 29 mph    
Max Gust Speed 32 mph    
Visibility 6 miles    
Events Fog , Snow    
T = Trace of Precipitation, MM = Missing Value Source: NWS Daily Summary

Daily Weather History Graph

Daily Weather History Graph

Search for Another Location

Airport or City:

Trip Planner

Search our weather history database for the weather conditions in past years. The results will help you decide how hot, cold, wet, or windy it might be!

Date:

Astronomy

Jan. 28, 2013 Rise Set
Actual Time 7:17 AM MST 5:14 PM MST
Civil Twilight 6:47 AM MST 5:44 PM MST
Nautical Twilight 6:14 AM MST 6:17 PM MST
Astronomical Twilight 5:42 AM MST 6:49 PM MST
Moon 7:13 PM MST (1/28) 7:42 AM MST (1/28)
Length of Visible Light 10h 56m
Length of Day
9h 57m
Full, 97% of the Moon is Illuminated
Jan 28
Full
Feb 3
Last Quarter
Feb 10
New
Feb 17
First Quarter
Feb 25
Full

Hourly Weather History & Observations

Time (MST) Temp. Windchill Dew Point Humidity Pressure Visibility Wind Dir Wind Speed Gust Speed Precip Events Conditions
12:53 AM 21.0 °F 9.3 °F 18.0 °F 88% 29.65 in 10.0 mi SSE 11.5 mph - N/A   Clear
1:53 AM 23.0 °F 11.7 °F 17.1 °F 78% 29.62 in 10.0 mi South 11.5 mph - N/A   Clear
2:53 AM 30.0 °F 18.3 °F 21.0 °F 69% 29.57 in 10.0 mi SW 17.3 mph - N/A   Clear
3:53 AM 30.0 °F 17.5 °F 23.0 °F 75% 29.58 in 10.0 mi SW 19.6 mph - N/A   Partly Cloudy
4:53 AM 30.0 °F 17.2 °F 24.1 °F 79% 29.58 in 10.0 mi SW 20.7 mph - N/A   Clear
5:53 AM 26.1 °F 13.6 °F 21.9 °F 84% 29.60 in 10.0 mi WSW 16.1 mph - N/A   Partly Cloudy
6:53 AM 28.0 °F 16.1 °F 21.9 °F 78% 29.60 in 10.0 mi WSW 16.1 mph - N/A   Clear
7:53 AM 32.0 °F 18.4 °F 21.9 °F 66% 29.58 in 10.0 mi WSW 26.5 mph - N/A   Mostly Cloudy
8:53 AM 33.1 °F - 24.1 °F 70% 29.63 in 10.0 mi Calm Calm - N/A   Partly Cloudy
9:13 AM 32.0 °F 26.4 °F 23.0 °F 69% 29.64 in 10.0 mi NW 5.8 mph - N/A   Mostly Cloudy
9:53 AM 30.0 °F 25.2 °F 24.1 °F 79% 29.63 in 10.0 mi NE 4.6 mph - N/A   Overcast
10:40 AM 26.6 °F 15.2 °F 23.0 °F 86% 29.65 in 2.0 mi North 13.8 mph - 0.00 in Snow Light Snow
10:45 AM 26.6 °F 14.3 °F 23.0 °F 86% 29.65 in 0.8 mi North 16.1 mph - 0.00 in Snow Light Snow
10:53 AM 26.1 °F 13.6 °F 23.0 °F 88% 29.65 in 0.2 mi North 16.1 mph - 0.00 in Fog , Snow Snow
11:02 AM 24.8 °F 11.1 °F 23.0 °F 93% 29.65 in 0.2 mi North 18.4 mph - 0.00 in Fog , Snow Snow
11:13 AM 24.8 °F 11.9 °F 21.2 °F 86% 29.65 in 0.5 mi North 16.1 mph - 0.00 in Fog , Snow Snow
11:27 AM 24.8 °F 11.5 °F 21.2 °F 86% 29.65 in 0.5 mi North 17.3 mph - 0.00 in Fog , Snow Snow
11:35 AM 23.0 °F 8.7 °F 21.2 °F 93% 29.64 in 0.5 mi North 18.4 mph 24.2 mph 0.00 in Fog , Snow Snow
11:40 AM 23.0 °F 8.7 °F 21.2 °F 93% 29.64 in 0.8 mi North 18.4 mph - 0.00 in Snow Light Snow
11:49 AM 23.0 °F 8.3 °F 19.4 °F 86% 29.63 in 1.2 mi North 19.6 mph 26.5 mph 0.00 in Snow Light Snow
11:53 AM 23.0 °F 9.2 °F 19.9 °F 88% 29.66 in 1.0 mi NNW 17.3 mph 26.5 mph 0.00 in Snow Light Snow
12:35 PM 21.2 °F 5.6 °F 19.4 °F 93% 29.62 in 0.8 mi NNW 20.7 mph - 0.00 in Snow Light Snow
12:44 PM 21.2 °F 6.4 °F 19.4 °F 93% 29.62 in 0.5 mi North 18.4 mph 26.5 mph 0.00 in Fog , Snow Light Snow
12:53 PM 21.9 °F 6.9 °F 19.0 °F 89% 29.70 in 0.8 mi NNW 19.6 mph 26.5 mph 0.00 in Snow Light Snow
1:24 PM 23.0 °F 8.3 °F 19.4 °F 86% 29.62 in 0.5 mi NNW 19.6 mph 26.5 mph 0.00 in Fog , Snow Snow
1:37 PM 23.0 °F 8.7 °F 19.4 °F 86% 29.62 in 0.8 mi NNW 18.4 mph 25.3 mph 0.00 in Snow Light Snow
1:53 PM 21.9 °F 7.8 °F 19.0 °F 89% 29.70 in 0.8 mi North 17.3 mph - 0.00 in Snow Light Snow
2:22 PM 21.2 °F 5.6 °F 17.6 °F 86% 29.63 in 0.5 mi North 20.7 mph 24.2 mph 0.00 in Fog , Snow Snow
2:38 PM 21.2 °F 7.8 °F 17.6 °F 86% 29.63 in 0.8 mi North 15.0 mph - 0.00 in Snow Light Snow
2:40 PM 21.2 °F 7.3 °F 17.6 °F 86% 29.63 in 1.0 mi North 16.1 mph - 0.00 in Snow Light Snow
2:46 PM 21.2 °F 7.8 °F 17.6 °F 86% 29.63 in 3.0 mi North 15.0 mph - 0.00 in Snow Light Snow
2:53 PM 21.9 °F 9.2 °F 18.0 °F 85% 29.67 in 7.0 mi North 13.8 mph - 0.00 in Snow Light Snow
3:00 PM 21.2 °F 9.5 °F 17.6 °F 86% 29.63 in 10.0 mi North 11.5 mph - N/A   Overcast
3:12 PM 23.0 °F 9.2 °F 17.6 °F 80% 29.63 in 9.0 mi North 17.3 mph - 0.00 in Snow Light Snow
3:45 PM 23.0 °F 10.6 °F 15.8 °F 74% 29.64 in 10.0 mi North 13.8 mph - 0.00 in   Overcast
3:53 PM 23.0 °F 9.2 °F 14.0 °F 68% 29.66 in 10.0 mi North 17.3 mph - 0.00 in   Overcast
4:53 PM 19.9 °F 7.3 °F 12.9 °F 74% 29.70 in 10.0 mi North 12.7 mph - N/A   Scattered Clouds
5:08 PM 19.4 °F 6.0 °F 12.2 °F 74% 29.64 in 10.0 mi North 13.8 mph - N/A   Overcast
5:32 PM 19.4 °F 7.9 °F 12.2 °F 74% 29.64 in 10.0 mi North 10.4 mph - N/A   Overcast
5:53 PM 19.9 °F 7.9 °F 12.9 °F 74% 29.73 in 10.0 mi NNW 11.5 mph - N/A   Overcast
6:53 PM 18.0 °F 6.1 °F 9.0 °F 68% 29.74 in 10.0 mi NW 10.4 mph - N/A   Overcast
7:53 PM 15.1 °F - 7.0 °F 70% 29.73 in 10.0 mi Calm Calm - N/A   Partly Cloudy
8:53 PM 15.1 °F 6.4 °F 5.0 °F 64% 29.73 in 10.0 mi WNW 5.8 mph - N/A   Overcast
9:53 PM 14.0 °F 5.1 °F 7.0 °F 74% 29.75 in 10.0 mi ENE 5.8 mph - N/A   Overcast
10:53 PM 15.1 °F 9.4 °F 7.0 °F 70% 29.76 in 10.0 mi NE 3.5 mph - N/A   Overcast
11:53 PM 15.1 °F - 6.1 °F 68% 29.77 in 10.0 mi Calm Calm - N/A   Overcast